Regional Weather Roundup
Issued by NWS

Home | Current Version | Previous Version | Graphics & Text | Print | Product List | Glossary Off
Versions: 1 2 3 4 5 6 7 8 9 10 11 12 13 14 15 16 17 18 19 20 21 22 23 24 25 26 27 28 29 30 31 32 33 34 35 36 37 38 39 40 41 42 43 44 45 46 47 48 49 50

000
ASUS43 KBIS 231810
RWRND

NORTH DAKOTA REGIONAL WEATHER ROUNDUP
NATIONAL WEATHER SERVICE BISMARCK ND
100 PM CDT THU OCT 23 2014

NOTE: "FAIR" INDICATES FEW OR NO CLOUDS BELOW 12,000 FEET WITH NO
SIGNIFICANT WEATHER AND/OR OBSTRUCTIONS TO VISIBILITY.


NDZ001>003-009>011-017-231900-
NORTHWEST NORTH DAKOTA

CITY           SKY/WX    TMP DP  RH WIND       PRES   REMARKS
WILLISTON      MOSUNNY   58  33  39 SW10      29.81F
6HR MIN TEMP:  33; 6HR MAX TEMP:  58;

MINOT          MOSUNNY   63  34  33 S7        29.80F
MINOT AFB      MOSUNNY   64  36  36 S6        29.79F
$$

NDZ018>021-031>035-040>046-231900-
SOUTHWEST NORTH DAKOTA

CITY           SKY/WX    TMP DP  RH WIND       PRES   REMARKS
BISMARCK       SUNNY     66  34  30 SW9       29.88F
6HR MIN TEMP:  31; 6HR MAX TEMP:  66;

DICKINSON      SUNNY     67  32  27 SW14      29.85F
GARRISON         N/A     61  35  37 SW10      29.83F
6HR MIN TEMP:  36; 6HR MAX TEMP:  61;

HETTINGER ARPT MOSUNNY   67  26  21 S10       29.90F
$$

NDZ004>008-012>016-024-026-027-054-231900-
NORTHEAST NORTH DAKOTA

CITY           SKY/WX    TMP DP  RH WIND       PRES   REMARKS
GRAND FORKS    MOSUNNY   67  39  35 SW10G18   29.84F
GRND FRKS AFB  SUNNY     68  41  37 SW10      29.84F
DEVILS LAKE    SUNNY     61  37  41 SW13      29.82F
$$

NDZ022-023-025-028>030-036>039-047>053-231900-
SOUTHEAST NORTH DAKOTA

CITY           SKY/WX    TMP DP  RH WIND       PRES   REMARKS
FARGO          SUNNY     62  46  55 S14       29.90F
6HR MIN TEMP:  41; 6HR MAX TEMP:  62;

JAMESTOWN      SUNNY     66  36  32 SW18G25   29.86F
$$




USA.gov is the U.S. government's official web portal to all federal, state and local government web resources and services.